Погода в Домачах

Россия / Липецкая область     53°20′13″N   39°26′59″E
темп.,
°C
ветер,
м/с
пор.,
м/с
влажн.,
%
обл.,
%
осадки,
мм/ч
давл.,
гПа
погр.,
м
20 апреля, вт
вт2000:00+6в61183100 0.0 1019619
03:00+6в61284100 0.0 1018515
06:00+5в61191100 0.1 1017587
09:00+5в61092100 0.1 1017594
12:00+5в61191100 0.1 1016703
15:00+5в71191100 0.5 1014690
18:00+4в71391100 0.1 1012665
21:00+3всв81595100 5.1 1007753
21 апреля, ср
ср2100:00+5всв101994100 9.5 9991107
03:00+3ю121994100 9.9 998713
06:00+2ююз81397100 1.4 1002579
09:00+3юз71187100 1.4 1006735
12:00+5юз61192100 0.0 1009889
15:00+8юз7107192 0.1 10111190
18:00+7ююз2482100 0.1 1013114
21:00+6юз239193 0.3 101466
22 апреля, чт
чт2200:00+5юз339369 0.1 101561
03:00+4ю359499 0.1 1016104
06:00+4ююз36965 0.1 1017156
09:00+8юз587454 0.1 1018692
12:00+12юз575523 0.1 10181610
15:00+14юз574953 0.1 10181937
18:00+13ююз476230 0.1 1019683
21:00+9ю498118 0.1 1020201
23 апреля, пт
пт2300:00+8ююз498635 0.0 1020181
03:00+7ююз37899 0.0 1020123
06:00+7ююз369166 0.3 1021120
09:00+12ююз576999 0.5 1021426
12:00+16ююз68535 0.0 10201526
15:00+17ююз674589 0.4 10192272
18:00+14ю61061100 0.2 1019602
21:00+11ю410705 0.2 1018192
24 апреля, сб
сб2400:00+9ю411785 0.0 1017210
03:00+8ююв5128126 0.0 1016235
06:00+8ююв5127933 0.0 1014295
09:00+12ююз61073100 0.2 1013563
12:00+13юз71368100 1.6 10131450
15:00+6зсз5685100 1.7 1015542
18:00+8зюз486636 0.1 10141228
21:00+5з4107259 0.2 1015431